www.pogodaiklimat.ru

Погода и климат >> Архив погоды >> Индонезия >> Лонгбаван


ПОГОДА в Лонгбаване

  • Прогноз погоды в Лонгбаване
  • Монитор погоды в Лонгбаване

АРХИВ ПОГОДЫ в Лонгбаване

Время (UTC), дата Ветер
(напр.,м/с)
 
Видим.   Явления Облачность Т
(С)
Тd
(С)
f
(%)
Тe
(С)
Тes
(С)
Комфортность P
(гПа)
Po
(гПа)
Тmin
(С)
Tmax
(С)
R
(мм)
R24
(мм)
S
(см)
00 13.06 штиль 0 2000 м 9/6 180 м
[St As op Ci fib]
+21.4 +20.1 92 +27 +28 душно 1018.5 908.9 +20.6 0.0
03 13.06 Ю 2 10 км 6/6 450 м
[Sc diur, vesp As trans Ci fib]
+26.4 +20.6 70 +33 +40 очень
душно
1017.9 908.4
06 13.06 ЮЗ 3 9000 м {дождь} 8/5 420 м
[Cu hum Ac As Ci fib]
+29.1 +20.7 61 +36 +41 очень
душно
1015.1 905.9 0.0
09 13.06 Ю 3 9000 м 6/5 420 м
[Cu med, cong Ac trans Ci fib]
+28.7 +21.6 65 +37 +37 очень
душно
1013.8 904.7
00 14.06 штиль 0 1200 м дымка 9/6 210 м
[Sc Ac As]
+21.3 +20.4 95 +27 +28 душно 1018.8 909.2 +20.1 38
03 14.06 штиль 0 7000 м 9/6 330 м
[Sc As trans Ci fib]
+24.8 +20.4 77 +31 +37 очень
душно
1018.4 908.8
06 14.06 штиль 0 8000 м осадки на расстоянии 9/6 420 м
[Sc diur, vesp Ac trans Ci fib]
+26.7 +20.4 68 +33 +38 очень
душно
1015.3 906.1
09 14.06 штиль 0 10 км 9/6 420 м
[Sc diur, vesp Ac trans Ci fib]
+26.7 +20.2 68 +33 +34 очень
душно
1014.1 905.1
00 15.06 штиль 0 1000 м местами туман поземный 10/8 120 м
[St Ac trans Ci fib]
+21.6 +20.1 91 +27 +28 душно 1018.4 908.8 +20.2 7
03 15.06 штиль 0 10 км 6/5 450 м
[Cu hum Ac trans Ci fib]
+26.7 +20.7 70 +33 +44 очень
душно
1017.5 908.0
06 15.06 ЮЗ 3 10 км 6/5 450 м
[Cu hum Ac trans Ci fib]
+30.8 +19.1 50 +36 +42 очень
душно
1013.9 904.8
09 15.06 СЗ 4 10 км 9/5 450 м
[Cu hum Ac trans Ci fib]
+26.2 +19.5 67 +32 +32 очень
душно
1013.4 904.4
00 16.06 штиль 0 1000 м дымка 10/10 150 м
[St]
+20.0 +19.2 95 +23 +23 комфорт 1018.8 909.2 +19.6 16
03 16.06 С 3 7000 м 9/6 270 м
[St As trans Ci fib]
+25.4 +20.8 76 +32 +35 очень
душно
1018.0 908.5
06 16.06 З 4 8000 м {морось} 10/6 330 м
[Cu hum As trans]
+26.7 +19.0 63 +32 +34 очень
душно
1015.6 906.3
09 16.06 ЮЗ 2 8000 м в посл. час дождь 9/6 330 м
[Cu hum As trans]
+25.3 +20.0 72 +31 +31 очень
душно
1015.2 905.9 0.0
00 17.06 Ю 2 1200 м дымка 10/6 210 м
[Sc As trans]
+19.9 +18.8 93 +24 +24 комфорт 1018.5 908.9 +19.2 1
03 17.06 Ю 2 8000 м 8/4 330 м
[Cu hum Ac trans Ci fib]
+25.0 +21.4 80 +32 +39 очень
душно
1018.6 909.0
06 17.06 З 4 9000 м осадки на расстоянии 8/5 420 м
[Cu hum Ac trans Ci fib]
+28.5 +20.9 63 +36 +39 очень
душно
1015.3 906.1
09 17.06 СЗ 4 9000 м осадки на расстоянии 8/5 420 м
[Cu hum Ac trans Ci fib]
+26.1 +20.3 70 +32 +33 очень
душно
1015.2 905.9
00 18.06 штиль 0 1800 м дымка 8/4 240 м
[Sc Ac trans Ci fib]
+20.6 +19.2 92 +24 +27 комфорт 1018.5 908.9 +18.8 17
03 18.06 ЮЗ 4 9000 м 5/4 400 м
[Cu hum Ac trans Ci fib]
+27.0 +21.6 72 +34 +42 очень
душно
1017.3 907.8
06 18.06 З 4 10 км 5/4 450 м
[Cu hum Ac trans Ci fib]
+29.4 +19.3 55 +35 +42 очень
душно
1014.6 905.4
09 18.06 СВ 2 10 км 8/6 450 м
[Cu hum Ac trans Ci fib]
+25.2 +20.4 75 +31 +32 очень
душно
1014.4 905.3
00 19.06 штиль 0 3000 м 9/6 210 м
[St As trans Ci fib]
+21.6 +20.0 91 +27 +28 душно 1017.8 908.2 +20.0
03 19.06 ЮЗ 2 10 км 8/6 450 м
[Sc diur, vesp As trans Ci fib]
+26.2 +19.7 67 +32 +37 очень
душно
1017.2 907.7
06 19.06 З 2 10 км 8/6 450 м
[Cu med, cong Ac trans Ci fib]
+28.6 +19.7 59 +35 +39 очень
душно
1014.1 905.0

 

Местоположение метеостанции Лонгбаван (Индонезия): широта 3.73 долгота 115.68 высота над уровнем моря 550 м.

В архиве по умолчанию представлена погода в Лонгбаване за последнюю неделю. Архивные данные за месяц целиком и за предыдущие месяцы, начиная с января 2011 года, Вы можете получить, выбрав интересующий диапазон дат из раскрывающегося списка и нажав кнопку "Ввод!".


*Определитесь, кто Вы:
робот инопланетянин человек

Внимание! Время в таблицах - всемирное. Для получения местного времени необходимо прибавить поправку, которая равна 8 ч.

Смотрите также архив погоды в соседних городах и на ближайших метеорологических станциях:

Погода в Бруней аэропорту (Бруней) (157 км)
Погода в Лабуане (Малайзия) (181 км)
Погода в Мири (Малайзия) (200 км)
Погода в Танджунгселоре (Индонезия) (208 км)
Погода в Таракане (Индонезия) (213 км)
Погода в Кота-Кинабалу (Малайзия) (248 км)
Погода в Тавау (Малайзия) (251 км)
Погода в Танджунгредепе (Индонезия) (266 км)
Погода в Бинталу (Малайзия) (300 км)
Погода в Сандакане (Малайзия) (358 км)

Пояснения к столбцам:

Ветер - указаны скорость ветра в м/с - средняя за 10 мин, порывы в срок и между сроками (в фигурных скобках) и направление, откуда дует ветер: С - северный, СВ - северо-восточный, В - восточный, ЮВ - юго-восточный, Ю - южный, ЮЗ - юго-западный, З - западный, СЗ - северо-западный.
Видимость - горизонтальная дальность видимости в метрах или километрах. При видимости от 1 до 10 км при отсутствии осадков обычно наблюдается дымка, при ухудшении видимости до 1 км и менее - туман. В сухую погоду видимость может ухудшаться дымом, пылью или мглою.
Явления - указаны атмосферные явления, наблюдавшиеся в срок или в последний час перед сроком; фигурными скобками обозначены явления, наблюдавшиеся между сроками (за 1-3 часа до срока); квадратными скобками обозначены град или гололедные отложения с указанием их диаметра в мм.
Облачность - указаны через наклонную черту общая и нижняя облачность в баллах и высота нижней границы облаков в метрах; квадратными скобками обозначены формы облаков: Ci - перистые, Cs - перисто-слоистые, Cc - перисто-кучевые, Ac - высококучевые, As - высокослоистые, Sc - слоисто-кучевые, Ns - слоисто-дождевые, Cu - кучевые, Cb - кучево-дождевые. Подробнее классификацию облаков см. в Атласе облаков (PDF).
T - Температура воздуха - температура, измеренная на высоте 2 м над землей.
Td - Температура точки росы - температура, при понижении до которой содержащийся в воздухе водяной пар достигнет насыщения.
f - Относительная влажность воздуха - влажноcть воздуха, измеренная на высоте 2 м над землей.
Te - Эффективная температура - температура, которую ощущает одетый по сезону человек в тени. Характеристика душности погоды. При расчете учитывается влияние влажности воздуха и скорости ветра на теплоощущения человека.
Tes - Эффективная температура на солнце - температура, которую ощущает человек, с поправкой на солнечный нагрев. Характеристика знойности погоды. Зависит от высоты солнца над горизонтом, облачности и скорости ветра. Ночью, в пасмурную погоду, а также при ветре 12 м/с и более поправка равна нулю.
P - Атмосферное давление - приведенное к уровню моря атмосферное давление.
Po - Атмосферное давление - измеренное на уровне метеостанции атмосферное давление.
Tmin - Минимальная температура - минимум температуры воздуха на высоте 2 м над землей.
Tmax - Максимальная температура - максимум температуры воздуха на высоте 2 м над землей.
R - Количество осадков - Количество выпавших осадков за период времени, мм. При наведении курсора мыши на число - период времени, за который выпало указанное количество осадков.
R24 - Количество осадков - Количество выпавших осадков за 24 часа, мм.
S - Снежный покров - Высота снежного покрова, см. При наведении курсора мыши на число - состояние снежного покрова и степень покрытия местности в баллах.